Location: Poughquag
(41.6090°N, 73.6820°W)
Time: 09:01:31
(UTC-05:00)

DIWATA 2B (PO-101) - Pass Details

Date: 16 November 2025
Orbit: 563 x 574 km, 98.1° (Epoch: 07 December)

Event Time Altitude Azimuth Distance (km) Brightness Sun altitude
Rises 05:15:55 0° 170° (S) 2,761 ? -16.7°
Reaches altitude 10° 05:18:03 10° 172° (S) 1,866 ? -16.3°
Maximum altitude 05:22:05 73° 257° (WSW) 599 ? -15.6°
Drops below altitude 10° 05:26:08 10° 343° (NNW) 1,874 ? -14.8°
Enters shadow 05:27:33 - 345° (NNW) 2,467 ? -14.6°
